TimeEDT,TemperatureF,Dew PointF,Humidity,Sea Level PressureIn,VisibilityMPH,Wind Direction,Wind SpeedMPH,Gust SpeedMPH,PrecipitationIn,Events,Conditions,WindDirDegrees,DateUTC
12:15 AM,75.2,73.4,94,30.01,10.0,Calm,Calm,-,N/A,,Mostly Cloudy,0,2013-08-30 04:15:00
12:35 AM,75.2,73.4,94,30.01,10.0,Calm,Calm,-,N/A,,Partly Cloudy,0,2013-08-30 04:35:00
12:55 AM,73.4,71.6,94,30.02,10.0,Calm,Calm,-,N/A,,Clear,0,2013-08-30 04:55:00
1:35 AM,73.4,71.6,94,30.01,9.0,SE,3.5,-,N/A,,Partly Cloudy,140,2013-08-30 05:35:00
1:55 AM,73.4,71.6,94,30.01,10.0,Calm,Calm,-,N/A,,Clear,0,2013-08-30 05:55:00
2:15 AM,73.4,71.6,94,30.01,8.0,Calm,Calm,-,N/A,,Clear,0,2013-08-30 06:15:00
2:35 AM,71.6,71.6,100,30.01,7.0,Calm,Calm,-,N/A,,Clear,0,2013-08-30 06:35:00
2:55 AM,71.6,71.6,100,30.01,7.0,Calm,Calm,-,N/A,,Clear,0,2013-08-30 06:55:00
3:15 AM,71.6,69.8,94,30.01,8.0,Calm,Calm,-,N/A,,Clear,0,2013-08-30 07:15:00
3:35 AM,71.6,69.8,94,30.01,5.0,Calm,Calm,-,N/A,,Partly Cloudy,0,2013-08-30 07:35:00
3:55 AM,71.6,71.6,100,30.01,8.0,Calm,Calm,-,N/A,,Partly Cloudy,0,2013-08-30 07:55:00
4:15 AM,71.6,69.8,94,30.01,8.0,Calm,Calm,-,N/A,,Clear,0,2013-08-30 08:15:00
4:35 AM,71.6,69.8,94,30.00,6.0,Calm,Calm,-,N/A,,Partly Cloudy,0,2013-08-30 08:35:00
4:55 AM,71.6,71.6,100,30.01,6.0,Calm,Calm,-,N/A,,Clear,0,2013-08-30 08:55:00
5:15 AM,71.6,69.8,94,30.01,7.0,Calm,Calm,-,N/A,,Scattered Clouds,0,2013-08-30 09:15:00
5:35 AM,71.6,69.8,94,30.01,7.0,Calm,Calm,-,N/A,,Partly Cloudy,0,2013-08-30 09:35:00
5:55 AM,69.8,69.8,100,30.01,4.0,Calm,Calm,-,N/A,,Clear,0,2013-08-30 09:55:00
6:15 AM,71.6,69.8,94,30.01,6.0,Calm,Calm,-,N/A,,Clear,0,2013-08-30 10:15:00
6:35 AM,69.8,69.8,100,30.01,7.0,Calm,Calm,-,N/A,,Clear,0,2013-08-30 10:35:00
6:55 AM,69.8,69.8,100,30.02,8.0,Calm,Calm,-,N/A,,Clear,0,2013-08-30 10:55:00
7:15 AM,69.8,69.8,100,30.03,5.0,Calm,Calm,-,N/A,,Clear,0,2013-08-30 11:15:00
7:35 AM,69.8,69.8,100,30.03,8.0,Calm,Calm,-,N/A,,Clear,0,2013-08-30 11:35:00
7:55 AM,69.8,69.8,100,30.04,0.5,Calm,Calm,-,N/A,,Unknown,0,2013-08-30 11:55:00
8:15 AM,71.6,71.6,100,30.04,3.0,Calm,Calm,-,N/A,,Partly Cloudy,0,2013-08-30 12:15:00
8:35 AM,71.6,71.6,100,30.04,5.0,Calm,Calm,-,N/A,,Partly Cloudy,0,2013-08-30 12:35:00
8:55 AM,73.4,73.4,100,30.04,5.0,Calm,Calm,-,N/A,,Clear,0,2013-08-30 12:55:00
9:55 AM,80.6,73.4,79,30.04,10.0,Calm,Calm,-,N/A,,Clear,0,2013-08-30 13:55:00
10:15 AM,82.4,73.4,74,30.04,10.0,Calm,Calm,-,N/A,,Clear,0,2013-08-30 14:15:00
10:35 AM,84.2,73.4,70,30.04,10.0,SE,4.6,-,N/A,,Clear,140,2013-08-30 14:35:00
10:55 AM,84.2,73.4,70,30.04,10.0,Calm,Calm,-,N/A,,Clear,0,2013-08-30 14:55:00
11:15 AM,84.2,73.4,70,30.04,10.0,North,3.5,-,N/A,,Clear,350,2013-08-30 15:15:00
11:35 AM,86.0,75.2,70,30.03,10.0,Calm,Calm,-,N/A,,Clear,0,2013-08-30 15:35:00
11:55 AM,87.8,73.4,62,30.03,10.0,Calm,Calm,-,N/A,,Clear,0,2013-08-30 15:55:00
12:15 PM,87.8,73.4,62,30.03,10.0,NNE,4.6,-,N/A,,Partly Cloudy,20,2013-08-30 16:15:00
12:35 PM,87.8,73.4,62,30.03,10.0,Variable,3.5,-,N/A,,Scattered Clouds,0,2013-08-30 16:35:00
12:55 PM,87.8,73.4,62,30.03,10.0,Calm,Calm,-,N/A,,Mostly Cloudy,0,2013-08-30 16:55:00
1:15 PM,87.8,73.4,62,30.02,10.0,West,6.9,-,N/A,,Partly Cloudy,260,2013-08-30 17:15:00
1:35 PM,87.8,73.4,62,30.02,10.0,Variable,4.6,-,N/A,,Clear,0,2013-08-30 17:35:00
1:55 PM,89.6,73.4,59,30.01,10.0,West,5.8,-,N/A,,Clear,260,2013-08-30 17:55:00
2:15 PM,87.8,73.4,62,30.00,10.0,WNW,4.6,-,N/A,,Partly Cloudy,300,2013-08-30 18:15:00
2:35 PM,89.6,73.4,59,29.99,10.0,West,5.8,-,N/A,,Partly Cloudy,270,2013-08-30 18:35:00
2:55 PM,89.6,73.4,59,29.99,10.0,Variable,4.6,-,N/A,,Clear,0,2013-08-30 18:55:00
3:15 PM,89.6,73.4,59,29.97,10.0,Variable,4.6,-,N/A,,Clear,0,2013-08-30 19:15:00
3:35 PM,89.6,73.4,59,29.98,10.0,WNW,6.9,-,N/A,,Clear,290,2013-08-30 19:35:00
3:55 PM,91.4,73.4,55,29.97,10.0,West,10.4,-,N/A,,Partly Cloudy,280,2013-08-30 19:55:00
4:15 PM,89.6,75.2,62,29.96,10.0,WNW,9.2,-,N/A,,Scattered Clouds,300,2013-08-30 20:15:00
4:35 PM,89.6,75.2,62,29.97,10.0,WNW,5.8,-,N/A,,Partly Cloudy,300,2013-08-30 20:35:00
4:55 PM,89.6,73.4,59,29.98,10.0,WNW,3.5,-,N/A,,Clear,300,2013-08-30 20:55:00
5:15 PM,87.8,71.6,58,29.97,10.0,NW,4.6,-,N/A,,Clear,310,2013-08-30 21:15:00
5:35 PM,87.8,71.6,58,29.97,10.0,WNW,3.5,-,N/A,,Clear,290,2013-08-30 21:35:00
5:55 PM,87.8,71.6,58,29.96,10.0,West,4.6,-,N/A,,Clear,260,2013-08-30 21:55:00
6:15 PM,87.8,73.4,62,29.97,10.0,SW,4.6,-,N/A,,Clear,230,2013-08-30 22:15:00
6:35 PM,86.0,73.4,66,29.96,10.0,Calm,Calm,-,N/A,,Clear,0,2013-08-30 22:35:00
6:55 PM,86.0,73.4,66,29.95,10.0,Calm,Calm,-,N/A,,Clear,0,2013-08-30 22:55:00
7:15 PM,82.4,75.2,79,29.95,10.0,ESE,4.6,-,N/A,,Clear,110,2013-08-30 23:15:00
7:35 PM,82.4,75.2,79,29.95,10.0,ESE,4.6,-,N/A,,Clear,110,2013-08-30 23:35:00
7:55 PM,80.6,75.2,84,29.95,10.0,ESE,3.5,-,N/A,,Clear,120,2013-08-30 23:55:00
8:15 PM,78.8,73.4,83,29.95,10.0,ESE,4.6,-,N/A,,Clear,110,2013-08-31 00:15:00
8:35 PM,77.0,73.4,89,29.96,10.0,SE,5.8,-,N/A,,Clear,130,2013-08-31 00:35:00
8:55 PM,75.2,71.6,89,29.96,10.0,ESE,3.5,-,N/A,,Scattered Clouds,120,2013-08-31 00:55:00
9:15 PM,75.2,71.6,89,29.96,10.0,ESE,5.8,-,N/A,,Scattered Clouds,120,2013-08-31 01:15:00
9:35 PM,75.2,71.6,89,29.96,10.0,SE,6.9,-,N/A,,Clear,130,2013-08-31 01:35:00
9:55 PM,75.2,71.6,89,29.96,10.0,SE,5.8,-,N/A,,Scattered Clouds,130,2013-08-31 01:55:00
10:15 PM,75.2,71.6,89,29.97,10.0,SE,5.8,-,N/A,,Mostly Cloudy,130,2013-08-31 02:15:00
10:35 PM,75.2,71.6,89,29.97,10.0,SE,5.8,-,N/A,,Mostly Cloudy,130,2013-08-31 02:35:00
10:55 PM,75.2,71.6,89,29.97,10.0,SE,4.6,-,N/A,,Mostly Cloudy,130,2013-08-31 02:55:00
11:15 PM,75.2,71.6,89,29.97,10.0,ESE,4.6,-,N/A,,Mostly Cloudy,120,2013-08-31 03:15:00
11:35 PM,73.4,71.6,94,29.96,10.0,SE,4.6,-,N/A,,Scattered Clouds,130,2013-08-31 03:35:00
11:55 PM,73.4,71.6,94,29.96,10.0,SE,5.8,-,N/A,,Clear,130,2013-08-31 03:55:00